[keps] orb08101.2l.amsat
Ray Hoad
r.hoad at att.net
Thu Apr 10 19:21:49 PDT 2008
SB KEPS @ AMSAT $ORB08101.N
2Line Orbital Elements 08101.AMSAT
HR AMSAT ORBITAL ELEMENTS FOR AMATEUR SATELLITES IN NASA FORMAT
FROM WA5QGD FORT WORTH,TX April 10, 2008
Send Subscribe/unsubscribe to KEPS at
http://www.amsat.org/mailman/listinfo/keps
BID: ORB08101.N
DECODE 2-LINE ELSETS WITH THE FOLLOWING KEY:
1 AAAAAU 00 0 0 BBBBB.BBBBBBBB .CCCCCCCC 00000-0 00000-0 0 DDDZ
2 AAAAA EEE.EEEE FFF.FFFF GGGGGGG HHH.HHHH III.IIII JJ.JJJJJJJJKKKKKZ
KEY: A-CATALOGNUM B-EPOCHTIME C-DECAY D-ELSETNUM E-INCLINATION F-RAAN
G-ECCENTRICITY H-ARGPERIGEE I-MNANOM J-MNMOTION K-ORBITNUM Z-CHECKSUM
TO ALL RADIO AMATEURS BT
AO-07
1 07530U 74089B 08100.66006116 -.00000027 00000-0 10000-3 0 01499
2 07530 101.4733 134.4326 0011996 037.2395 322.9506 12.53573729528392
AO-10
1 14129U 83058B 08097.37080946 -.00000217 00000-0 10000-3 0 04925
2 14129 025.9224 221.7469 6009885 113.1132 318.9819 02.05872751186621
UO-11
1 14781U 84021B 08100.68162962 .00000173 00000-0 30314-4 0 06404
2 14781 098.1612 133.6688 0008115 297.1732 062.8601 14.79632973293728
RS-15
1 23439U 94085A 08100.89849777 -.00000039 00000-0 10000-3 0 01231
2 23439 064.8138 245.4742 0149656 135.8486 225.4496 11.27552104547261
FO-29
1 24278U 96046B 08101.75152378 .00000070 00000-0 10663-3 0 7473
2 24278 098.5873 026.8583 0351324 030.2103 331.8792 13.52936991575271
SO-33
1 25509U 98061B 08101.73836972 .00000318 00000-0 50570-4 0 1726
2 25509 031.4313 337.7280 0354811 157.5901 204.0686 14.28211241493961
AO-40
1 26609U 00072B 08101.13444296 -.00000251 00000-0 10000-3 0 382
2 26609 007.5481 088.6252 7916660 069.9301 353.9337 01.25582268 34182
VO-52
1 28650U 05017B 08100.64828243 .00000367 00000-0 53230-4 0 9005
2 28650 097.7939 169.1239 0027189 006.9381 353.2191 14.81447628158454
PO-63
1 29712U 07001D 08101.62187680 .00000798 00000-0 11196-3 0 3457
2 29712 097.8807 161.0632 0013113 238.5070 121.4863 14.80098887 67477
AO-16
1 20439U 90005D 08100.51575602 .00000007 00000-0 17679-4 0 2930
2 20439 098.2253 084.1056 0011563 025.6306 334.5446 14.31789696951098
LO-19
1 20442U 90005G 08100.64433503 .00000012 00000-0 19717-4 0 02202
2 20442 098.1985 092.9663 0012452 023.4026 336.7735 14.32028521951265
AO-27
1 22825U 93061C 08100.66339666 -.00000056 00000-0 -57764-5 0 09427
2 22825 098.3789 063.2791 0009358 101.5131 258.7096 14.29234993757989
IO-26
1 22826U 93061D 08100.79933866 .00000006 00000-0 18492-4 0 06451
2 22826 098.3703 064.3502 0009863 097.7726 262.4579 14.29483661758094
PO-28
1 22829U 93061G 08100.46955244 -.00000011 00000-0 11810-4 0 09189
2 22829 098.3588 065.1501 0010767 073.4324 286.8037 14.30185320758302
GO-32
1 25397U 98043D 08101.75632666 -.00000162 00000-0 -53524-4 0 5711
2 25397 098.3717 140.2276 0002165 087.6039 272.5388 14.23140850506624
MO-46
1 26548U 00057D 08100.66568842 .00000049 00000-0 23972-4 0 00699
2 26548 064.5597 342.3015 0022227 333.8227 026.1765 14.83247428407656
NO-44
1 26931U 01043C 08100.51078768 .00000085 00000-0 65471-4 0 08517
2 26931 067.0495 101.5739 0005786 279.0872 080.9578 14.29518705340591
SO-50
1 27607U 02058C 08100.90229269 .00000039 00000-0 28050-4 0 05756
2 27607 064.5576 261.0154 0083124 292.8878 066.3422 14.71343807284924
CO-55
1 27844U 03031E 08101.60920759 .00000089 00000-0 61771-4 0 2783
2 27844 098.7173 110.8105 0009480 316.1330 043.9094 14.20571658247849
CO-57
1 27848U 03031J 08100.54157331 .00000067 00000-0 51493-4 0 02312
2 27848 098.7180 108.8670 0009510 322.9595 037.0915 14.20381891247661
AO-51
1 28375U 04025K 08100.63477445 .00000019 00000-0 18643-4 0 723
2 28375 098.0783 129.0417 0084932 001.3527 358.7880 14.40602912198534
CO-56
1 28941U 06005C 08100.93506048 .00017944 26389-5 14810-3 0 09882
2 28941 098.1019 202.5242 0177111 288.4847 069.7210 15.53312320119438
CP4
1 31122U 07012F 08101.63632703 .00000551 00000-0 13192-3 0 3106
2 31122 098.0475 169.7203 0086403 177.7318 182.4282 14.55110430 52252
CP3
1 31128U 07012M 08100.62794917 -.00000047 00000-0 00000-0 0 03041
2 31128 098.0442 166.9486 0102832 186.2585 173.7330 14.51932387051985
LIBERT
1 31129U 07012N 08101.63997738 .00000338 00000-0 89029-4 0 8814
2 31129 098.0434 167.9540 0102588 183.1456 176.9079 14.52023144 52114
NOAA-10
1 16969U 86073A 08100.66770452 .00000039 00000-0 34170-4 0 00757
2 16969 098.7270 122.7590 0012792 024.9241 335.2556 14.27356059121662
NOAA-11
1 19531U 88089A 08100.71317486 .00000088 00000-0 68332-4 0 01149
2 19531 098.7957 190.9959 0010733 263.4373 096.5572 14.14869977008222
NOAA-12
1 21263U 91032A 08100.69746124 -.00000060 00000-0 -63136-5 0 06211
2 21263 098.7669 102.6563 0011842 328.9997 031.0502 14.25524990878631
MET-3/5
1 21655U 91056A 08100.97271045 .00000051 00000-0 10000-3 0 04269
2 21655 082.5556 152.5747 0012974 178.5773 181.5388 13.17014680800603
MET-2/21
1 22782U 93055A 08100.72758613 .00000067 00000-0 47218-4 0 1116
2 22782 082.5501 165.8830 0024000 120.0593 240.2954 13.83627429737661
OKEAN-4
1 23317U 94066A 08101.76902533 .00000296 00000-0 33754-4 0 5557
2 23317 082.5426 017.9740 0022330 354.1074 005.9880 14.82599468728291
NOAA-14
1 23455U 94089A 08100.68511091 .00000173 00000-0 11547-3 0 00958
2 23455 098.9493 172.8766 0008967 344.0686 016.0214 14.13738902684674
SICH-1
1 23657U 95046A 08100.73253596 .00000180 00000-0 19907-4 0 3528
2 23657 082.5294 159.9179 0023673 349.6886 010.3880 14.81567296680082
NOAA-15
1 25338U 98030A 08100.67241202 -.00000058 00000-0 -65759-5 0 04216
2 25338 098.5527 094.2820 0009677 238.2942 121.7304 14.24693892515044
RESURS
1 25394U 98043A 08101.73248609 -.00000012 00000-0 12778-4 0 8998
2 25394 098.3941 148.7407 0002387 051.1203 309.0188 14.24156211506841
FENGYUN1
1 25730U 99025A 08100.96524742 -.00000056 00000-0 -81581-5 0 04200
2 25730 098.7221 079.0655 0022387 007.2735 352.8753 14.07724615459363
OKEAN-0
1 25860U 99039A 08100.87101809 .00000072 00000-0 18339-4 0 03388
2 25860 097.7477 094.4525 0001593 092.0536 268.0856 14.73513804469332
NOAA-16
1 26536U 00055A 08100.70825805 -.00000116 00000-0 -37431-4 0 08830
2 26536 099.1536 088.3957 0011312 060.2271 300.0001 14.12475190389102
NOAA-17
1 27453U 02032A 08100.68352143 -.00000007 00000-0 15656-4 0 08780
2 27453 098.5390 167.2774 0010805 310.5687 049.4537 14.23963216301053
NOAA-18
1 28654U 05018A 08100.70233078 -.00000112 00000-0 -37826-4 0 03864
2 28654 098.8636 042.4918 0014725 143.8203 216.3962 14.11150521148817
HUBBLE
1 20580U 90037B 08100.96204573 .00000443 00000-0 21482-4 0 01128
2 20580 028.4687 048.1922 0003517 020.5199 339.5531 15.00363360784724
UARS
1 21701U 91063B 08100.48155591 .00007871 00000-0 11919-3 0 03482
2 21701 056.9717 101.0756 0090027 050.8076 310.0932 15.51214392911835
PO-34
1 25520U 98064B 08100.71949499 .00000499 00000-0 14753-4 0 09695
2 25520 028.4596 277.1581 0005484 255.9005 104.0976 15.17169915522751
ISS
1 25544U 98067A 08101.91978255 .00027459 00000-0 16652-3 0 2843
2 25544 051.6423 003.1310 0000968 019.2532 076.4688 15.77323379537917
OO-38
1 26063U 00004C 08101.69820830 -.00000023 00000-0 12248-4 0 1828
2 26063 100.1971 164.1055 0037053 040.3043 320.0876 14.35831881429881
UWE-1
1 28892U 05043C 08100.66954427 .00000113 00000-0 33444-4 0 00193
2 28892 098.1029 355.9228 0016217 264.7765 095.1569 14.59613485130609
CO-58
1 28895U 05043F 08100.70791408 .00000121 00000-0 35062-4 0 09937
2 28895 098.1063 356.2898 0016736 263.7019 096.2252 14.59655030130494
NCUBE2
1 28897U 05043H 08100.68041129 .00000168 00000-0 44753-4 0 05242
2 28897 098.1034 356.1980 0016254 266.6815 093.2505 14.59824290122772
FCAL
1 29667U 06055J 08101.64675791 .00127815 19625-4 12358-3 0 8870
2 29667 051.6260 311.2837 0004442 096.9881 263.1427 16.11290291 75663
FALCON
1 30776U 07006E 08101.68436906 .00000540 00000-0 42460-4 0 2877
2 30776 035.4336 202.8702 0000194 290.6751 069.3944 15.02948032 59984
MAST
1 31126U 07012K 08100.74157255 .00000130 00000-0 40055-4 0 03017
2 31126 098.0433 167.8944 0094820 183.4669 176.5866 14.53414000052076
CAPE1
1 31130U 07012P 08100.76134099 .00000441 00000-0 11279-3 0 02801
2 31130 098.0418 167.0778 0102795 185.8974 174.1018 14.51950312051797
/EX
More information about the Keps
mailing list